Location: Fours
(44.3167°N, 6.7000°E)
Time: 20:41:43
(UTC+00:00)

Timation 2 Rocket - Pass Details

Date: 30 May 2022
Orbit: 904 x 1076 km, 70.0° (Epoch: 25 June)

Event Time Altitude Azimuth Distance (km) Brightness Sun altitude
Rises 19:29:23 0° 333° (NNW) 3,745 8.4 -3.9°
Reaches altitude 10° 19:31:56 10° 335° (NNW) 2,815 7.6 -4.3°
Maximum altitude 19:38:35 79° 63° (ENE) 1,070 4.2 -5.2°
Drops below altitude 10° 19:45:25 10° 150° (SSE) 2,891 5.9 -6.2°
Enters shadow 19:46:42 - 151° (SSE) 3,359 6.2 -6.4°
